FW7499 Weather Reports


time (UTC)temp
C
wind
direction
speed
KPH
gust
KPH
rain 1hr
cm
rain 24hr
cm
rain mn
cm
humidity
%
barometer
mb
20240614122503 19 337 0.0 0.0 0.00 0.00 0.00 77 1018.6
20240614122003 19 337 0.0 0.0 0.00 0.00 0.00 76 1018.6
20240614121513 18 337 0.0 0.0 0.00 0.00 0.00 76 1018.5
20240614121003 18 337 0.0 0.0 0.00 0.00 0.00 77 1018.4
20240614120506 18 337 0.0 0.0 0.00 0.00 0.00 77 1018.3
20240614120002 18 337 0.0 0.0 0.00 0.00 0.00 77 1018.2
20240614115503 18 337 0.0 0.0 0.00 0.00 0.00 76 1018.1
20240614115007 17 337 0.0 0.0 0.00 0.00 0.00 75 1018.1
20240614114503 17 337 0.0 0.0 0.00 0.00 0.00 75 1018.0
20240614114003 17 337 0.0 0.0 0.00 0.00 0.00 75 1017.8
20240614113504 17 337 0.0 0.0 0.00 0.00 0.00 75 1017.8
20240614113005 17 337 0.0 0.0 0.00 0.00 0.00 75 1017.8
20240614112504 17 337 0.0 0.0 0.00 0.00 0.00 75 1017.7
20240614112005 17 337 0.0 0.0 0.00 0.00 0.00 76 1017.7
20240614111502 17 337 0.0 0.0 0.00 0.00 0.00 75 1017.6
20240614111002 17 337 0.0 0.0 0.00 0.00 0.00 75 1017.6
20240614110506 17 337 0.0 0.0 0.00 0.00 0.00 75 1017.5
20240614110005 17 337 0.0 0.0 0.00 0.00 0.00 75 1017.6
20240614105501 17 337 0.0 0.0 0.00 0.00 0.00 75 1017.8
20240614105003 17 337 0.0 0.0 0.00 0.00 0.00 75 1017.6
20240614104503 17 337 0.0 0.0 0.00 0.00 0.00 75 1017.6
20240614104002 17 337 0.0 0.0 0.00 0.00 0.00 74 1017.7
20240614103502 17 337 0.0 0.0 0.00 0.00 0.00 73 1017.7
20240614103005 17 337 0.0 0.0 0.00 0.00 0.00 73 1017.8
20240614102503 17 337 0.0 0.0 0.00 0.00 0.00 73 1017.5
20240614102003 17 337 0.0 0.0 0.00 0.00 0.00 72 1017.6
20240614101509 17 337 0.0 0.0 0.00 0.00 0.00 71 1017.7
20240614101003 17 337 0.0 0.0 0.00 0.00 0.00 71 1017.9
20240614100506 17 337 0.0 0.0 0.00 0.00 0.00 70 1017.7
20240614100004 17 337 0.0 0.0 0.00 0.00 0.00 70 1017.7
20240614095504 18 337 0.0 0.0 0.00 0.00 0.00 70 1017.6
20240614095004 18 337 0.0 0.0 0.00 0.00 0.00 70 1017.5
20240614094505 18 337 0.0 0.0 0.00 0.00 0.00 68 1017.5
20240614094003 18 337 0.0 0.0 0.00 0.00 0.00 69 1017.4
20240614093502 18 337 0.0 0.0 0.00 0.00 0.00 68 1017.2
20240614093005 18 337 0.0 0.0 0.00 0.00 0.00 67 1017.2
20240614092502 18 337 0.0 0.0 0.00 0.00 0.00 68 1017.2
20240614092006 18 337 0.0 0.0 0.00 0.00 0.00 68 1017.0
20240614091502 18 337 0.0 0.0 0.00 0.00 0.00 68 1016.8
20240614091004 18 337 0.0 0.0 0.00 0.00 0.00 67 1016.8
20240614090503 18 337 0.0 0.0 0.00 0.00 0.00 66 1016.9
20240614090006 19 337 0.0 0.0 0.00 0.00 0.00 64 1017.0
20240614085506 19 337 0.0 0.0 0.00 0.00 0.00 63 1017.0
20240614085004 19 337 0.0 0.0 0.00 0.00 0.00 63 1017.0
20240614084508 19 337 0.0 0.0 0.00 0.00 0.00 63 1017.1
20240614084006 19 337 0.0 0.0 0.00 0.00 0.00 63 1017.1
20240614083505 19 337 0.0 0.0 0.00 0.00 0.00 62 1017.0
20240614083003 20 337 0.0 0.0 0.00 0.00 0.00 62 1017.0
20240614082502 20 337 0.0 0.0 0.00 0.00 0.00 60 1017.0
20240614082005 20 337 0.0 0.0 0.00 0.00 0.00 60 1017.0
20240614081509 20 337 0.0 0.0 0.00 0.00 0.00 58 1017.0
20240614081003 20 337 0.0 0.0 0.00 0.00 0.00 58 1016.9
20240614080506 21 337 0.0 0.0 0.00 0.00 0.00 58 1016.9
20240614080010 21 337 0.0 0.0 0.00 0.00 0.00 57 1016.9
20240614075502 21 337 0.0 0.0 0.00 0.00 0.00 56 1016.8
20240614075003 21 337 0.0 0.0 0.00 0.00 0.00 56 1016.8
20240614074508 21 337 0.0 0.0 0.00 0.00 0.00 56 1016.8
20240614074004 21 337 0.0 0.0 0.00 0.00 0.00 56 1016.8
20240614073503 21 337 0.0 0.0 0.00 0.00 0.00 55 1016.9
20240614073007 22 337 0.0 3.2 0.00 0.00 0.00 53 1016.7
20240614072503 22 337 0.0 3.2 0.00 0.00 0.00 52 1016.6
20240614072004 22 337 1.6 4.8 0.00 0.00 0.00 53 1016.6
20240614071509 21 337 1.6 4.8 0.00 0.00 0.00 54 1016.7
20240614071003 22 337 0.0 1.6 0.00 0.00 0.00 54 1016.7
20240614070503 22 337 0.0 1.6 0.00 0.00 0.00 52 1016.7
20240614070008 22 337 0.0 1.6 0.00 0.00 0.00 52 1016.6
20240614065509 22 337 0.0 3.2 0.00 0.00 0.00 52 1016.5
20240614065009 22 337 0.0 4.8 0.00 0.00 0.00 51 1016.4
20240614064507 22 337 0.0 4.8 0.00 0.00 0.00 52 1016.4
20240614064003 22 336 1.6 4.8 0.00 0.00 0.00 51 1016.3
20240614063508 22 336 0.0 6.4 0.00 0.00 0.00 51 1016.2
20240614063011 22 336 1.6 6.4 0.00 0.00 0.00 52 1016.2
20240614062503 22 336 0.0 3.2 0.00 0.00 0.00 53 1016.1
20240614062002 22 336 0.0 3.2 0.00 0.00 0.00 55 1016.1
20240614061507 22 336 0.0 3.2 0.00 0.00 0.00 56 1016.0
20240614061007 22 336 1.6 3.2 0.00 0.00 0.00 55 1016.1
20240614060503 22 336 1.6 3.2 0.00 0.00 0.00 57 1016.0
20240614060003 22 336 0.0 0.0 0.00 0.00 0.00 60 1016.1
20240614055503 22 336 0.0 0.0 0.00 0.00 0.00 59 1016.3
20240614055003 22 336 0.0 0.0 0.00 0.00 0.00 59 1016.3
20240614054502 22 336 0.0 0.0 0.00 0.00 0.00 60 1016.3
20240614054007 22 336 0.0 0.0 0.00 0.00 0.00 59 1016.3
20240614053506 22 336 0.0 1.6 0.00 0.00 0.00 59 1016.4
20240614053006 22 336 0.0 3.2 0.00 0.00 0.00 59 1016.3
20240614052505 22 336 0.0 3.2 0.00 0.00 0.00 60 1016.3
20240614052005 23 336 1.6 3.2 0.00 0.00 0.00 59 1016.3
20240614051503 22 336 1.6 3.2 0.00 0.00 0.00 59 1016.3
20240614051003 23 336 0.0 3.2 0.00 0.00 0.00 60 1016.3
20240614050505 23 336 0.0 3.2 0.00 0.00 0.00 60 1016.3
20240614050005 23 336 0.0 4.8 0.00 0.00 0.00 60 1016.3
20240614045503 23 336 1.6 4.8 0.00 0.00 0.00 61 1016.3
20240614045007 22 336 1.6 4.8 0.00 0.00 0.00 63 1016.3
20240614044503 22 336 1.6 3.2 0.00 0.00 0.00 66 1016.3
20240614044005 22 336 1.6 3.2 0.00 0.00 0.00 67 1016.3
20240614043503 22 336 0.0 1.6 0.00 0.00 0.00 67 1016.3
20240614043004 22 336 0.0 1.6 0.00 0.00 0.00 66 1016.3
20240614042504 23 336 0.0 1.6 0.00 0.00 0.00 65 1016.2
20240614042003 23 336 0.0 1.6 0.00 0.00 0.00 64 1016.0
20240614041503 23 336 0.0 0.0 0.00 0.00 0.00 64 1015.9
20240614041005 23 336 0.0 1.6 0.00 0.00 0.00 63 1015.8
20240614040503 23 336 0.0 1.6 0.00 0.00 0.00 63 1015.6
20240614040002 23 336 0.0 0.0 0.00 0.00 0.00 62 1015.4
20240614035505 24 336 0.0 3.2 0.00 0.00 0.00 62 1015.4
20240614035004 24 336 0.0 3.2 0.00 0.00 0.00 61 1015.3
20240614034503 25 336 0.0 4.8 0.00 0.00 0.00 60 1015.2
20240614034003 25 336 1.6 4.8 0.00 0.00 0.00 59 1015.0
20240614033505 25 296 1.6 4.8 0.00 0.00 0.00 59 1014.8
20240614033007 25 296 0.0 0.0 0.00 0.00 0.00 58 1014.7
20240614032504 25 296 0.0 0.0 0.00 0.00 0.00 61 1014.6
20240614032003 25 296 0.0 0.0 0.00 0.00 0.00 58 1014.3
20240614031504 25 296 0.0 0.0 0.00 0.00 0.00 59 1014.2
20240614031007 25 296 0.0 0.0 0.00 0.00 0.00 58 1014.0
20240614030502 25 296 0.0 0.0 0.00 0.00 0.00 58 1014.0
20240614030003 25 296 0.0 0.0 0.00 0.00 0.00 58 1013.9
20240614025506 25 296 0.0 0.0 0.00 0.00 0.00 58 1013.7
20240614025004 25 296 0.0 0.0 0.00 0.00 0.00 57 1013.6
20240614024504 25 296 0.0 0.0 0.00 0.00 0.00 56 1013.6
20240614024005 25 296 0.0 0.0 0.00 0.00 0.00 55 1013.6
20240614023505 25 296 0.0 0.0 0.00 0.00 0.00 55 1013.5
20240614023005 25 296 0.0 0.0 0.00 0.00 0.00 54 1013.6
20240614022504 26 296 0.0 0.0 0.00 0.00 0.00 54 1013.5
20240614022007 26 296 0.0 0.0 0.00 0.00 0.00 54 1013.3
20240614021503 26 296 0.0 0.0 0.00 0.00 0.00 53 1013.3
20240614021003 26 296 0.0 1.6 0.00 0.03 0.00 52 1013.3
20240614020507 26 296 0.0 3.2 0.00 0.08 0.00 51 1013.2
20240614020007 26 296 0.0 3.2 0.00 0.08 0.00 51 1013.3
20240614015505 26 296 0.0 1.6 0.00 0.08 0.00 51 1013.2
20240614015003 26 296 0.0 1.6 0.00 0.08 0.00 53 1013.0
20240614014502 26 296 0.0 1.6 0.00 0.08 0.00 52 1013.1
20240614014004 26 296 0.0 1.6 0.00 0.08 0.00 51 1013.0
20240614013504 27 296 0.0 3.2 0.00 0.08 0.00 50 1012.9
20240614013005 27 296 0.0 4.8 0.00 0.08 0.00 49 1012.9
20240614012503 27 296 0.0 4.8 0.00 0.08 0.00 48 1012.5
20240614012005 27 296 0.0 3.2 0.00 0.08 0.00 49 1012.3
20240614011504 27 296 0.0 4.8 0.00 0.08 0.00 48 1012.2
20240614011003 27 112 0.0 8.0 0.00 0.08 0.00 48 1012.1
20240614010504 27 360 1.6 8.0 0.00 0.08 0.00 46 1012.2
20240614010004 27 53 0.0 9.7 0.00 0.08 0.00 47 1012.2
20240614005504 27 10 3.2 9.7 0.00 0.08 0.00 48 1012.2
20240614005006 28 321 1.6 4.8 0.00 0.08 0.00 47 1012.2
20240614004507 28 269 0.0 12.9 0.00 0.08 0.00 47 1012.2
20240614004002 28 5 1.6 12.9 0.00 0.08 0.00 46 1012.2
20240614003503 28 340 3.2 12.9 0.00 0.08 0.00 46 1012.3
20240614003004 28 312 1.6 9.7 0.00 0.08 0.00 45 1012.2
20240614002503 28 112 1.6 11.3 0.00 0.08 0.00 45 1012.2
20240614002003 28 337 4.8 11.3 0.00 0.08 0.00 46 1012.2
20240614001503 28 63 3.2 9.7 0.00 0.08 0.00 45 1012.1
20240614001005 28 121 1.6 14.5 0.00 0.08 0.00 45 1012.1
20240614000506 28 99 1.6 14.5 0.00 0.08 0.00 45 1012.1
20240614000007 28 24 1.6 12.9 0.00 0.08 0.00 45 1012.3
20240613235507 29 109 3.2 12.9 0.00 0.08 0.00 44 1012.4
20240613235003 29 119 3.2 16.1 0.00 0.08 0.00 43 1012.6
20240613234528 29 121 3.2 16.1 0.00 0.08 0.00 44 1012.6
20240613234002 30 111 8.0 16.1 0.00 0.08 0.00 43 1012.5
20240613233502 30 352 3.2 19.3 0.00 0.08 0.00 43 1012.4
20240613233004 30 22 0.0 19.3 0.00 0.08 0.00 44 1012.4
20240613232508 30 95 3.2 14.5 0.00 0.08 0.00 45 1012.3
20240613232005 30 9 3.2 11.3 0.00 0.08 0.00 43 1012.2
20240613231505 30 147 0.0 12.9 0.00 0.08 0.00 44 1012.2
20240613231003 30 352 4.8 12.9 0.00 0.08 0.00 42 1012.3
20240613230510 30 136 4.8 16.1 0.00 0.08 0.00 43 1012.3
20240613230022 30 329 3.2 16.1 0.00 0.08 0.00 43 1012.3
20240613225502 30 117 1.6 11.3 0.00 0.08 0.00 45 1012.5
20240613225004 30 90 3.2 11.3 0.00 0.08 0.00 43 1012.7
20240613224508 30 311 1.6 14.5 0.00 0.08 0.00 45 1012.8
20240613224003 29 76 4.8 16.1 0.00 0.08 0.00 45 1012.9
20240613223503 30 96 3.2 16.1 0.00 0.08 0.00 46 1012.9
20240613223003 30 60 1.6 16.1 0.00 0.08 0.00 48 1012.9
20240613222501 29 79 1.6 11.3 0.00 0.08 0.00 46 1013.0
20240613222003 30 355 4.8 8.0 0.00 0.08 0.00 42 1012.9
20240613221503 30 341 3.2 25.7 0.00 0.08 0.00 44 1012.8
20240613221002 30 309 3.2 25.7 0.00 0.08 0.00 44 1012.8
20240613220504 30 18 4.8 20.9 0.00 0.08 0.00 41 1012.7
20240613220004 30 54 1.6 20.9 0.00 0.08 0.00 42 1012.7
20240613215504 31 24 3.2 19.3 0.00 0.08 0.00 41 1012.6
20240613215004 31 5 4.8 19.3 0.00 0.08 0.00 40 1012.7
20240613214502 30 86 4.8 22.5 0.00 0.08 0.00 42 1012.6
20240613214006 30 134 6.4 22.5 0.00 0.08 0.00 42 1012.6
20240613213502 31 95 4.8 22.5 0.00 0.08 0.00 44 1012.5
20240613213024 31 343 3.2 16.1 0.00 0.08 0.00 43 1012.5
20240613212503 31 298 3.2 8.0 0.00 0.08 0.00 43 1012.6
20240613212003 30 360 3.2 12.9 0.00 0.08 0.00 47 1012.6
20240613211501 30 183 4.8 17.7 0.00 0.08 0.00 43 1012.5
20240613211002 31 360 3.2 17.7 0.00 0.08 0.00 48 1012.6
20240613210501 31 346 4.8 14.5 0.00 0.08 0.00 41 1012.5
20240613210005 31 22 3.2 14.5 0.00 0.08 0.00 42 1012.3
20240613205503 31 104 4.8 14.5 0.00 0.08 0.00 46 1012.3
20240613205002 31 55 3.2 9.7 0.00 0.08 0.00 45 1012.3
20240613204507 31 360 1.6 9.7 0.00 0.08 0.00 46 1012.3
20240613204004 30 311 1.6 14.5 0.00 0.08 0.00 46 1012.5
20240613203504 29 59 3.2 14.5 0.00 0.08 0.00 46 1012.6
20240613203007 29 351 0.0 17.7 0.00 0.08 0.00 47 1012.6
20240613202503 29 360 4.8 17.7 0.00 0.08 0.00 47 1012.5
20240613202005 29 26 3.2 14.5 0.00 0.08 0.00 46 1012.5
20240613201505 29 35 3.2 17.7 0.00 0.08 0.00 46 1012.5
20240613201005 30 49 6.4 17.7 0.00 0.08 0.00 46 1012.5
20240613200503 30 107 4.8 19.3 0.00 0.08 0.00 46 1012.3
20240613200003 29 340 4.8 19.3 0.00 0.08 0.00 45 1012.3
20240613195502 28 79 6.4 19.3 0.00 0.08 0.00 46 1012.4
20240613195004 28 355 3.2 17.7 0.00 0.08 0.00 46 1012.3
20240613194503 29 355 3.2 17.7 0.00 0.08 0.00 48 1012.2
20240613194004 29 74 3.2 17.7 0.00 0.08 0.00 47 1012.2
20240613193505 29 130 3.2 17.7 0.00 0.08 0.00 48 1011.9
20240613193011 29 22 8.0 19.3 0.00 0.08 0.00 47 1011.9
20240613192504 29 57 4.8 19.3 0.00 0.08 0.00 46 1011.8
20240613192004 30 65 4.8 17.7 0.00 0.08 0.00 50 1011.7
20240613191508 29 25 4.8 20.9 0.00 0.08 0.00 48 1011.7
20240613191003 30 29 4.8 27.4 0.00 0.08 0.00 49 1011.8
20240613190503 30 121 6.4 27.4 0.00 0.08 0.00 46 1011.4
20240613190013 30 201 4.8 17.7 0.00 0.08 0.00 46 1011.3
20240613185506 30 51 4.8 22.5 0.00 0.08 0.00 47 1011.2
20240613185003 29 25 8.0 22.5 0.00 0.08 0.00 47 1011.4
20240613184506 29 68 4.8 17.7 0.00 0.08 0.00 49 1011.4
20240613184005 29 5 3.2 19.3 0.00 0.08 0.00 50 1011.4
20240613183502 29 355 4.8 22.5 0.00 0.08 0.00 49 1011.3
20240613183007 30 337 4.8 29.0 0.00 0.08 0.00 50 1011.2
20240613182508 31 344 14.5 29.0 0.00 0.08 0.00 49 1011.1
20240613182003 30 76 1.6 20.9 0.00 0.08 0.00 57 1011.1
20240613181506 30 123 9.7 25.7 0.00 0.08 0.00 54 1011.1
20240613181003 30 77 9.7 25.7 0.00 0.08 0.00 56 1010.9
20240613180507 30 257 8.0 20.9 0.00 0.08 0.00 59 1010.9
20240613180004 31 77 1.6 20.9 0.00 0.08 0.00 62 1010.9
20240613175505 31 25 8.0 20.9 0.00 0.08 0.00 60 1010.8
20240613175004 30 188 11.3 22.5 0.00 0.08 0.00 60 1010.8
20240613174510 31 119 6.4 22.5 0.00 0.08 0.00 60 1010.8
20240613174007 31 119 3.2 20.9 0.00 0.08 0.00 62 1010.8
20240613173503 31 97 4.8 20.9 0.00 0.08 0.00 63 1010.9
20240613173004 30 120 3.2 12.9 0.00 0.08 0.00 61 1010.8
20240613172503 30 17 1.6 19.3 0.00 0.08 0.00 65 1010.6
20240613172005 30 321 0.0 19.3 0.00 0.08 0.00 68 1010.7
20240613171508 30 346 4.8 16.1 0.00 0.08 0.00 62 1010.7
20240613171008 30 62 3.2 16.1 0.00 0.08 0.00 65 1010.5
20240613170505 30 123 4.8 16.1 0.00 0.08 0.00 65 1010.6
20240613170007 30 16 3.2 19.3 0.00 0.08 0.00 64 1010.7
20240613165503 30 49 9.7 19.3 0.00 0.08 0.00 63 1010.6
20240613165006 30 355 3.2 17.7 0.00 0.08 0.00 66 1010.7
20240613164508 30 156 1.6 9.7 0.00 0.08 0.00 67 1010.7
20240613164003 30 355 3.2 9.7 0.00 0.08 0.00 65 1010.6
20240613163512 30 5 1.6 9.7 0.00 0.08 0.00 65 1010.6
20240613163015 29 342 3.2 12.9 0.00 0.08 0.00 63 1010.4
20240613162507 30 103 3.2 12.9 0.00 0.08 0.00 65 1010.2
20240613162005 30 355 3.2 11.3 0.00 0.08 0.00 62 1010.2
20240613161507 30 344 1.6 11.3 0.00 0.08 0.00 62 1010.1
20240613161004 30 76 1.6 9.7 0.00 0.08 0.00 63 1009.9
20240613160506 30 80 1.6 6.4 0.00 0.08 0.00 63 1009.8
20240613160007 30 345 1.6 6.4 0.00 0.08 0.00 62 1009.7
20240613155506 30 355 1.6 6.4 0.00 0.08 0.00 61 1009.7
20240613155006 30 347 0.0 9.7 0.00 0.08 0.00 62 1009.7
20240613154511 28 59 0.0 9.7 0.00 0.08 0.00 62 1009.7
20240613154006 29 91 3.2 9.7 0.00 0.08 0.00 64 1009.8
20240613153503 28 352 0.0 6.4 0.00 0.08 0.00 61 1009.7
20240613153011 28 355 0.0 6.4 0.00 0.08 0.00 63 1009.8
20240613152505 28 352 1.6 4.8 0.00 0.08 0.00 62 1009.8
20240613152002 28 355 1.6 4.8 0.00 0.08 0.00 61 1009.7
20240613151508 28 339 1.6 3.2 0.00 0.08 0.00 62 1009.5
20240613151006 28 339 0.0 3.2 0.00 0.08 0.00 64 1009.5
20240613150505 28 270 0.0 4.8 0.00 0.08 0.00 64 1009.5
20240613150005 27 266 1.6 4.8 0.00 0.08 0.00 65 1009.4
20240613145505 27 340 0.0 4.8 0.00 0.08 0.00 67 1009.4
20240613145007 27 360 0.0 4.8 0.00 0.08 0.00 65 1009.3
20240613144515 27 261 1.6 4.8 0.00 0.08 0.00 66 1009.3
20240613144002 27 94 0.0 4.8 0.00 0.08 0.00 66 1008.8
20240613143506 28 88 0.0 4.8 0.00 0.08 0.00 67 1008.9
20240613143013 27 45 0.0 4.8 0.00 0.08 0.00 67 1009.0
20240613142504 27 82 0.0 4.8 0.00 0.08 0.00 67 1009.0
20240613142006 26 275 0.0 6.4 0.00 0.08 0.00 68 1009.0
20240613141507 26 275 1.6 6.4 0.00 0.08 0.00 68 1009.0
20240613141006 26 204 0.0 4.8 0.00 0.08 0.00 68 1009.0
20240613140506 26 298 0.0 4.8 0.00 0.08 0.00 68 1009.0
20240613140007 26 313 0.0 3.2 0.00 0.08 0.00 72 1009.0
20240613135504 26 196 1.6 6.4 0.00 0.08 0.00 69 1008.9
20240613135007 26 313 1.6 6.4 0.00 0.08 0.00 69 1008.8
20240613134506 26 240 0.0 6.4 0.00 0.08 0.00 69 1008.7
20240613134002 25 35 0.0 6.4 0.00 0.08 0.00 70 1008.6
20240613133504 25 148 0.0 8.0 0.00 0.08 0.00 71 1008.7
20240613133003 25 179 1.6 8.0 0.00 0.08 0.00 70 1008.6
20240613132502 25 193 3.2 8.0 0.00 0.08 0.00 71 1008.6
20240613132003 25 126 0.0 8.0 0.00 0.08 0.00 72 1008.5
20240613131503 25 277 1.6 8.0 0.00 0.08 0.00 72 1008.6
20240613131004 25 88 0.0 6.4 0.00 0.08 0.00 74 1008.6
20240613130502 24 151 1.6 6.4 0.00 0.08 0.00 72 1008.6
20240613130003 24 175 0.0 6.4 0.00 0.08 0.00 74 1008.6
20240613125506 24 246 1.6 4.8 0.00 0.08 0.00 75 1008.5
20240613125003 23 254 0.0 4.8 0.00 0.08 0.00 76 1008.5
20240613124503 23 274 0.0 1.6 0.00 0.08 0.00 78 1008.3
20240613124008 23 274 0.0 1.6 0.00 0.08 0.00 80 1008.1
20240613123503 23 274 0.0 1.6 0.00 0.08 0.00 80 1008.0
20240613123002 23 274 0.0 3.2 0.00 0.08 0.00 81 1007.9